Location: Kawakawa
(35.3830°S, 174.0670°E)
Time: 18:42:49
(UTC+13:00)

Cosmos 1486 Rocket - Pass Details

Date: 24 January 2019
Orbit: 759 x 783 km, 74.1° (Epoch: 20 February)

Event Time Altitude Azimuth Distance (km) Brightness Sun altitude
Exits shadow 22:36:54 16° 341° (NNW) 1,893 5.8 -20.9°
Maximum altitude 22:41:05 84° 254° (WSW) 778 4.0 -21.5°
Drops below altitude 10° 22:46:23 10° 164° (SSE) 2,330 6.9 -22.2°
Sets 22:48:47 0° 163° (SSE) 3,267 7.7 -22.6°
